[[{"header":{"parameterUnit":"m.s-1","parameterCategory":2,"la1":30.2991,"la2":30.254,"lo1":-89.0895,"lo2":-89.0444,"dy":0.0017,"dx":0.0017,"nx":28,"ny":28,"refTime":"2023-04-12T21:00:00:Z","depth":"0","parameterNumber":2,"parameterNumberName":"U-component_of_CURRENTS"},"data":[0,0,0,0,0,0,0,0,0,0,0,0,0,0,0,0,0,0,0,0,0,0,0,0,0,0,0,0,0,0,0,0,0,0,0,0,0,0,0,0,0,0,0,0,0,0,0,0,0,0,0,0,0,0,0,0,0,0,-0.2948,-0.2948,0,-0.2963,-0.2963,-0.2963,-0.2926,-0.2925,-0.2924,-0.2924,-0.2879,-0.2878,-0.2878,0,0,0,0,0,0,0,0,0,0,0,0,0,-0.2856,-0.2858,-0.2948,-0.2948,-0.2949,-0.2963,-0.2963,-0.2963,-0.2926,-0.2925,-0.2924,-0.2923,-0.2879,-0.2878,-0.2878,0,0,0,0,0,0,0,0,0,0,0,0,0,-0.2882,-0.2859,-0.2948,-0.2935,-0.2935,-0.2963,-0.2963,-0.2962,-0.2926,-0.2925,-0.2924,-0.2923,-0.2879,-0.2879,-0.2878,-0.2897,0,0,-0.2876,-0.2875,0,0,0,0,0,0,0,0,-0.2881,-0.2885,-0.2937,-0.2936,-0.2936,-0.2945,-0.2914,-0.2939,-0.2927,-0.2925,-0.2924,-0.2922,-0.2899,-0.2897,-0.2897,-0.2895,-0.2893,-0.2876,-0.2875,-0.2875,-0.2875,0,0,0,0,0,0,0,-0.2879,-0.2884,-0.2949,-0.2938,-0.2937,-0.2919,-0.2921,-0.2919,-0.2914,-0.2925,-0.2924,-0.2932,-0.2898,-0.2898,-0.2896,-0.2892,-0.2876,-0.2875,-0.2875,-0.2874,-0.2926,-0.2928,0,0,0,0,0,0,-0.2889,-0.2883,-0.2949,-0.295,-0.291,-0.2922,-0.2924,-0.294,-0.2915,-0.2912,-0.2933,-0.2931,-0.29,-0.2896,-0.2894,-0.293,-0.2875,-0.2874,-0.2874,-0.2925,-0.2927,-0.2929,0,0,0,0,0,0,-0.2887,-0.2895,-0.2948,-0.2919,-0.2926,-0.2926,-0.2943,-0.2941,-0.2938,-0.2923,-0.2917,-0.2933,-0.2898,-0.2895,-0.2902,-0.2927,-0.2874,-0.2873,-0.2923,-0.2925,-0.2928,-0.2992,0,0,0,0,0,0,-0.2885,-0.2895,-0.2904,-0.2921,-0.2928,-0.2974,-0.2944,-0.2942,-0.2948,-0.2944,-0.2921,-0.2916,-0.2897,-0.2903,-0.2901,-0.2925,-0.2873,-0.292,-0.2924,-0.2927,-0.2988,-0.2997,-0.3004,0,0,0,0,0,-0.2881,-0.2903,-0.2905,-0.2913,-0.2943,-0.2976,-0.2978,-0.297,-0.2949,-0.296,-0.2945,-0.2917,-0.2924,-0.2904,-0.2901,-0.2926,-0.2919,-0.2923,-0.2927,-0.2984,-0.2995,-0.3004,0,0,0,0,0,0,-0.2866,-0.2903,-0.2904,-0.2935,-0.2958,-0.2971,-0.2976,-0.2975,-0.2972,-0.296,-0.2936,-0.2932,-0.2948,-0.2934,-0.2913,-0.2954,-0.2918,-0.2922,-0.2963,-0.2973,-0.2981,-0.2982,-0.2872,0,0,0,0,0,-0.2871,-0.2891,-0.2928,-0.2947,-0.2961,-0.2968,-0.2977,-0.2978,-0.2982,-0.2979,-0.2967,-0.2959,-0.2966,-0.2965,-0.2964,-0.2985,-0.2962,-0.3001,-0.301,-0.3017,-0.3018,-0.3007,-0.3014,-0.2942,-0.2942,-0.2942,0,0,-0.2868,-0.289,-0.2901,-0.2944,-0.2953,-0.2989,-0.2969,-0.2989,-0.3016,-0.2975,-0.2993,-0.2984,-0.2978,-0.3002,-0.3009,-0.299,-0.3029,-0.3022,-0.3028,-0.3025,-0.3012,-0.3019,-0.3025,-0.2945,-0.2944,-0.2944,0,0,-0.2875,-0.2895,-0.2917,-0.2947,-0.2978,-0.2995,-0.3005,-0.3028,-0.3032,-0.3059,-0.3039,-0.3048,-0.3052,-0.3059,-0.3061,-0.3118,-0.3073,-0.3119,-0.3159,-0.315,-0.3155,-0.316,-0.3149,-0.3152,-0.3123,-0.3123,-0.3124,0,-0.2868,-0.2907,-0.2927,-0.2963,-0.299,-0.3002,-0.304,-0.306,-0.3081,-0.3092,-0.3071,-0.3091,-0.3082,-0.3119,-0.314,-0.3136,-0.3118,-0.3119,-0.3159,-0.3163,-0.3166,-0.3154,-0.3156,-0.3127,-0.3127,-0.3126,-0.3126,0,-0.2895,-0.2934,-0.2949,-0.3001,-0.3036,-0.3068,-0.3111,-0.3136,-0.314,-0.3154,-0.3183,-0.3175,-0.3182,-0.3193,-0.3181,-0.3213,-0.319,-0.3168,-0.3128,-0.3177,-0.3162,-0.3163,-0.3132,-0.3131,-0.313,-0.3129,0,0,-0.2852,-0.2951,-0.2953,-0.2988,-0.306,-0.3087,-0.3147,-0.3201,-0.3225,-0.3244,-0.3269,-0.3294,-0.3274,-0.3277,-0.3267,-0.3267,-0.3279,-0.3229,-0.3227,-0.321,-0.3254,-0.317,-0.3162,-0.3257,-0.3257,-0.3257,-0.3237,0,-0.2861,-0.2931,-0.2987,-0.3054,-0.3094,-0.3149,-0.3203,-0.3252,-0.3278,-0.3305,-0.3312,-0.3325,-0.3314,-0.3307,-0.3311,-0.3285,-0.3283,-0.3286,-0.3217,-0.3216,-0.3127,-0.3161,-0.3022,-0.2986,-0.3238,-0.3238,-0.3238,0,-0.2859,-0.2911,-0.2981,-0.3081,-0.3103,-0.3146,-0.3221,-0.3272,-0.333,-0.3348,-0.3371,-0.3368,-0.3389,-0.3353,-0.3344,-0.3343,-0.3305,-0.3281,-0.3279,-0.3175,-0.3133,-0.2977,-0.2977,-0.2954,-0.3239,-0.3239,-0.3239,0,-0.2793,-0.2901,-0.2954,-0.2989,-0.3107,-0.3141,-0.3191,-0.3266,-0.3306,-0.3357,-0.3377,-0.3403,-0.3399,-0.3376,-0.3338,-0.3336,-0.3306,-0.3292,-0.3187,-0.3181,-0.3035,-0.3015,-0.2992,-0.3273,-0.3273,-0.3273,-0.3273,0,-0.2776,-0.2812,-0.2921,-0.2949,-0.3002,-0.3093,-0.3146,-0.3204,-0.3279,-0.3308,-0.3373,-0.3386,-0.34,-0.3388,-0.3349,-0.3269,-0.3313,-0.3196,-0.3169,-0.3056,-0.3038,-0.2988,-0.3001,-0.3272,-0.3273,-0.3273,-0.3273,0,-0.2687,-0.2771,-0.2826,-0.2939,-0.2972,-0.2993,-0.3106,-0.3133,-0.3229,-0.3266,-0.328,-0.3368,-0.3352,-0.3356,-0.3315,-0.3267,-0.3141,-0.3163,-0.3031,-0.2988,-0.2856,-0.2878,-0.2806,-0.273,-0.3046,-0.3044,-0.3042,0,-0.2648,-0.2667,-0.2776,-0.2792,-0.2837,-0.2898,-0.2932,-0.3068,-0.3102,-0.3234,-0.3229,-0.3273,-0.3262,-0.321,-0.3131,-0.3054,-0.3042,-0.2887,-0.2856,-0.2831,-0.2837,-0.2849,-0.2792,-0.2699,-0.2694,-0.2691,-0.2688,0,-0.2548,-0.2582,-0.2622,-0.2659,-0.2694,-0.2754,-0.2816,-0.2857,-0.2999,-0.3056,-0.3109,-0.3122,-0.3097,-0.2973,-0.2897,-0.2827,-0.2802,-0.2806,-0.2809,-0.2587,-0.2568,-0.2486,-0.2747,-0.2654,-0.2658,-0.266,-0.2662,-0.2663,-0.2435,-0.2431,-0.2472,-0.2495,-0.254,-0.2571,-0.256,-0.2654,-0.2711,-0.2756,-0.2882,-0.2865,-0.2832,-0.2706,-0.2647,-0.2492,-0.2556,-0.2412,-0.2449,-0.2472,-0.2367,-0.2557,-0.2416,-0.2418,-0.2419,-0.2421,-0.2422,0,-0.228,-0.2291,-0.2299,-0.2329,-0.2307,-0.239,-0.2441,-0.2403,-0.2404,-0.2508,-0.2528,-0.2539,-0.2416,-0.2404,-0.2268,-0.2169,-0.2124,-0.2125,-0.2117,-0.2081,-0.2258,-0.221,-0.1981,-0.1981,-0.1981,-0.1981,-0.1981,-0.1981,-0.2192,-0.2146,-0.216,-0.2082,-0.209,-0.2007,-0.1993,-0.1975,-0.2014,-0.2016,-0.2067,-0.2168,-0.2159,-0.2259,-0.2112,-0.2012,-0.1975,-0.1897,-0.1952,-0.2097,-0.2128,-0.2157,-0.2115,-0.1869,-0.1869,-0.1685,-0.1684,-0.1683]},{"header":{"parameterUnit":"m.s-1","parameterCategory":2,"la1":30.2991,"la2":30.254,"lo1":-89.0895,"lo2":-89.0444,"dy":0.0017,"dx":0.0017,"nx":28,"ny":28,"refTime":"2023-04-12T21:00:00:Z","depth":"0","parameterNumber":3,"parameterNumberName":"V-component_of_CURRENTS"},"data":[0,0,0,0,0,0,0,0,0,0,0,0,0,0,0,0,0,0,0,0,0,0,0,0,0,0,0,0,0,0,0,0,0,0,0,0,0,0,0,0,0,0,0,0,0,0,0,0,0,0,0,0,0,0,0,0,0,0,-0.0362,-0.0361,0,-0.0247,-0.0245,-0.0244,-0.0168,-0.0168,-0.0168,-0.0167,-0.002,-0.0016,-0.0013,0,0,0,0,0,0,0,0,0,0,0,0,0,-0.0453,-0.0452,-0.0362,-0.036,-0.0359,-0.0247,-0.0245,-0.0243,-0.0169,-0.0168,-0.0168,-0.0167,-0.0021,-0.0017,-0.0012,0,0,0,0,0,0,0,0,0,0,0,0,0,-0.0382,-0.0452,-0.0362,-0.0309,-0.0303,-0.0247,-0.0245,-0.0243,-0.0169,-0.0168,-0.0167,-0.0167,-0.0022,-0.0017,-0.0012,0.001,0,0,0.0005,0.0007,0,0,0,0,0,0,0,0,-0.0387,-0.0379,-0.0318,-0.0313,-0.0306,-0.0222,-0.0223,-0.0157,-0.0169,-0.0218,-0.0167,-0.0167,-0.0086,-0.0075,-0.0053,0.0017,0.0023,0.0005,0.0008,0.0011,0.0012,0,0,0,0,0,0,0,-0.0392,-0.0383,-0.0315,-0.0317,-0.0309,-0.0269,-0.0259,-0.021,-0.0155,-0.0214,-0.0209,-0.0198,-0.0082,-0.0059,-0.0049,0.0026,0.0005,0.001,0.0013,0.0015,0.0128,0.0128,0,0,0,0,0,0,-0.0412,-0.0388,-0.0319,-0.0312,-0.0347,-0.0269,-0.0257,-0.0249,-0.0156,-0.0142,-0.0199,-0.0195,-0.0068,-0.0056,-0.0044,-0.0015,0.0011,0.0016,0.0019,0.0129,0.0128,0.0128,0,0,0,0,0,0,-0.0415,-0.0407,-0.0323,-0.0348,-0.0335,-0.0268,-0.0259,-0.0247,-0.0223,-0.0145,-0.013,-0.0188,-0.0067,-0.0051,-0.0001,-0.0009,0.0018,0.0023,0.0129,0.0129,0.0128,0.0045,0,0,0,0,0,0,-0.0418,-0.0409,-0.0413,-0.035,-0.0334,-0.0301,-0.0259,-0.0245,-0.0218,-0.0212,-0.0131,-0.0116,-0.0066,-0.0009,0.0004,-0.0001,0.0027,0.0129,0.0129,0.0128,0.0048,0.0041,0.0036,0,0,0,0,0,-0.0422,-0.0432,-0.0414,-0.0405,-0.0341,-0.0301,-0.029,-0.0239,-0.0218,-0.0215,-0.0156,-0.0119,-0.0002,-0.0005,0.0011,0.0007,0.0129,0.0129,0.0128,0.005,0.0043,0.0036,0,0,0,0,0,0,-0.0473,-0.0424,-0.0402,-0.0397,-0.0357,-0.0289,-0.0283,-0.0247,-0.0197,-0.0191,-0.0116,-0.0098,-0.0059,-0.0014,-0.0019,0.0039,0.0068,0.007,0.0003,-0.0004,-0.0009,-0.0025,0.0032,0,0,0,0,0,-0.0488,-0.0484,-0.0427,-0.0424,-0.0409,-0.0347,-0.0326,-0.0292,-0.0239,-0.0216,-0.0159,-0.0099,-0.0048,-0.0018,0.0032,0.0066,0.0118,0.0073,0.0067,0.0062,0.006,0.0133,0.0133,0.0127,0.0127,0.0127,0,0,-0.0508,-0.048,-0.0478,-0.0436,-0.0401,-0.0389,-0.0333,-0.0309,-0.0294,-0.0209,-0.0175,-0.0118,-0.0044,-0.0007,0.0015,0.0031,0.009,0.0062,0.0056,0.0058,0.0132,0.0133,0.0134,0.0126,0.0126,0.0126,0,0,-0.0552,-0.0522,-0.0536,-0.0508,-0.0466,-0.0425,-0.0423,-0.036,-0.0328,-0.0288,-0.0225,-0.017,-0.0096,-0.0041,-0.0004,-0.001,0.0055,-0.0,-0.0037,0.0033,0.0034,0.0036,0.0095,0.0103,-0.0,-0.0001,-0.0001,0,-0.0581,-0.0586,-0.0534,-0.0538,-0.0523,-0.0448,-0.0457,-0.0414,-0.0342,-0.0314,-0.0292,-0.0169,-0.0111,-0.0049,-0.0054,-0.0023,0.0023,-0.0019,0.0025,0.0028,0.0031,0.0092,0.0101,-0.0005,-0.0004,-0.0004,-0.0003,0,-0.0632,-0.0635,-0.0641,-0.0622,-0.0597,-0.0593,-0.0528,-0.0497,-0.045,-0.0397,-0.0329,-0.0241,-0.0166,-0.0142,-0.0099,-0.0049,-0.0022,0.0005,0.0039,0.0026,0.0091,0.0103,-0.0011,-0.0009,-0.0008,-0.0007,0,0,-0.0697,-0.0684,-0.0685,-0.0693,-0.0642,-0.0628,-0.0601,-0.055,-0.0524,-0.0449,-0.0405,-0.0315,-0.0257,-0.0211,-0.0143,-0.0082,-0.0023,-0.0039,-0.0033,0.0013,0.0125,0.0192,0.0212,0.0011,0.0013,0.0014,0.0158,0,-0.0754,-0.0797,-0.076,-0.0785,-0.0801,-0.0724,-0.0702,-0.0642,-0.0572,-0.0509,-0.0403,-0.0337,-0.0285,-0.0245,-0.0178,-0.0053,0.0004,-0.0065,0.0136,0.0142,0.0199,0.0227,0.0264,0.04,0.017,0.0172,0.0173,0,-0.0813,-0.0836,-0.0883,-0.0871,-0.0867,-0.0862,-0.0804,-0.0773,-0.0661,-0.0604,-0.0512,-0.0416,-0.0305,-0.0265,-0.0068,-0.0114,-0.0012,0.008,0.0089,0.019,0.0232,0.0379,0.0431,0.0592,0.0192,0.019,0.0189,0,-0.0892,-0.0913,-0.0957,-0.0955,-0.093,-0.0925,-0.0899,-0.0808,-0.0774,-0.0658,-0.0613,-0.0462,-0.0374,-0.0229,-0.0031,-0.0049,0.019,0.0194,0.035,0.0355,0.0448,0.046,0.0678,0.0319,0.0318,0.0318,0.0317,0,-0.0967,-0.0998,-0.1002,-0.1026,-0.1062,-0.1008,-0.1007,-0.0951,-0.0862,-0.0814,-0.0673,-0.0588,-0.0361,-0.0188,-0.0035,0.021,0.0194,0.0356,0.0406,0.0419,0.0426,0.062,0.0669,0.0323,0.0322,0.0321,0.032,0,-0.1041,-0.1047,-0.1099,-0.1103,-0.1104,-0.1129,-0.1094,-0.108,-0.0989,-0.0919,-0.0883,-0.0665,-0.0424,-0.0192,0.0082,0.0219,0.0545,0.0514,0.0514,0.0561,0.0843,0.0883,0.1141,0.1242,0.0706,0.0709,0.0711,0,-0.1082,-0.112,-0.1166,-0.1202,-0.1208,-0.1229,-0.1234,-0.1159,-0.113,-0.0955,-0.0921,-0.0669,-0.0465,-0.0033,0.0267,0.0573,0.0677,0.0767,0.0741,0.0884,0.0966,0.0986,0.1052,0.0827,0.0831,0.0833,0.0835,0,-0.1153,-0.1169,-0.1215,-0.1294,-0.1327,-0.1357,-0.135,-0.1346,-0.1231,-0.1137,-0.0949,-0.0766,-0.032,0.0092,0.0499,0.0667,0.0893,0.0827,0.0988,0.1097,0.1122,0.1234,0.0694,0.0857,0.0855,0.0853,0.0852,0.0851,-0.1193,-0.1252,-0.1309,-0.1379,-0.1427,-0.146,-0.1468,-0.1426,-0.1359,-0.1176,-0.0977,-0.066,-0.0066,0.0537,0.0742,0.1167,0.1099,0.127,0.1311,0.1322,0.1415,0.0921,0.1129,0.1129,0.1128,0.1128,0.1127,0,-0.1235,-0.1301,-0.138,-0.1463,-0.1522,-0.1517,-0.152,-0.1483,-0.1395,-0.1166,-0.0931,-0.0257,0.0308,0.0814,0.1432,0.164,0.1671,0.173,0.1767,0.1815,0.1404,0.1406,0.1669,0.1669,0.1669,0.1668,0.1668,0.1668,-0.1261,-0.1348,-0.1396,-0.1514,-0.1566,-0.1596,-0.159,-0.1507,-0.1341,-0.0952,-0.0563,-0.0214,0.0531,0.1511,0.2047,0.2074,0.2239,0.2213,0.2314,0.202,0.1979,0.194,0.1957,0.2331,0.2332,0.2712,0.2716,0.2719]}],[{"header":{"parameterUnit":"m.s-1","parameterCategory":2,"la1":30.2991,"la2":30.254,"lo1":-89.0895,"lo2":-89.0444,"dy":0.0017,"dx":0.0017,"nx":28,"ny":28,"refTime":"2023-04-12T21:00:00:Z","depth":"2","parameterNumber":2,"parameterNumberName":"U-component_of_CURRENTS"},"data":[0,0,0,0,0,0,0,0,0,0,0,0,0,0,0,0,0,0,0,0,0,0,0,0,0,0,0,0,0,0,0,0,0,0,0,0,0,0,0,0,0,0,0,0,0,0,0,0,0,0,0,0,0,0,0,0,0,0,-0.2629,-0.2629,0,-0.2648,-0.2648,-0.2648,-0.2621,-0.262,-0.2619,-0.2619,-0.2588,-0.2587,-0.2587,0,0,0,0,0,0,0,0,0,0,0,0,0,-0.2546,-0.2547,-0.2629,-0.2629,-0.263,-0.2648,-0.2648,-0.2648,-0.2621,-0.262,-0.2619,-0.2619,-0.2588,-0.2587,-0.2587,0,0,0,0,0,0,0,0,0,0,0,0,0,-0.2571,-0.2547,-0.2629,-0.2622,-0.2621,-0.2648,-0.2648,-0.2648,-0.2621,-0.262,-0.2619,-0.2618,-0.2588,-0.2587,-0.2587,-0.2602,0,0,-0.2586,-0.2586,0,0,0,0,0,0,0,0,-0.257,-0.2574,-0.2622,-0.2622,-0.2622,-0.2634,-0.2607,-0.2631,-0.2621,-0.2617,-0.2619,-0.2618,-0.2602,-0.26,-0.2601,-0.2601,-0.2599,-0.2586,-0.2585,-0.2585,-0.2585,0,0,0,0,0,0,0,-0.2568,-0.2573,-0.2632,-0.2623,-0.2623,-0.261,-0.2612,-0.2611,-0.261,-0.2617,-0.2616,-0.2625,-0.2601,-0.2601,-0.26,-0.2599,-0.2586,-0.2585,-0.2585,-0.2585,-0.2638,-0.264,0,0,0,0,0,0,-0.2576,-0.2571,-0.2632,-0.2633,-0.2598,-0.2612,-0.2615,-0.2628,-0.2611,-0.2609,-0.2626,-0.2624,-0.2602,-0.26,-0.2599,-0.2638,-0.2585,-0.2585,-0.2585,-0.2637,-0.2639,-0.2641,0,0,0,0,0,0,-0.2574,-0.2582,-0.2631,-0.2605,-0.2611,-0.2615,-0.263,-0.2629,-0.2633,-0.2619,-0.2615,-0.2631,-0.2602,-0.2599,-0.2611,-0.2635,-0.2585,-0.2584,-0.2635,-0.2637,-0.264,-0.2702,0,0,0,0,0,0,-0.2572,-0.2581,-0.2591,-0.2606,-0.2613,-0.2658,-0.2631,-0.263,-0.2641,-0.2638,-0.2622,-0.2618,-0.2601,-0.2612,-0.2611,-0.2634,-0.2584,-0.2633,-0.2636,-0.2639,-0.2697,-0.2706,-0.2713,0,0,0,0,0,-0.2569,-0.259,-0.2592,-0.2599,-0.2628,-0.2659,-0.2662,-0.2658,-0.2642,-0.2655,-0.2645,-0.2619,-0.2631,-0.2613,-0.2611,-0.2635,-0.2631,-0.2635,-0.2639,-0.2694,-0.2704,-0.2713,0,0,0,0,0,0,-0.2557,-0.259,-0.2592,-0.2621,-0.2644,-0.2656,-0.2664,-0.2665,-0.2667,-0.2659,-0.2638,-0.2635,-0.2654,-0.2641,-0.2622,-0.2662,-0.2628,-0.2631,-0.2671,-0.268,-0.2688,-0.2685,-0.2584,0,0,0,0,0,-0.2562,-0.2582,-0.2614,-0.2634,-0.2648,-0.2657,-0.2667,-0.2671,-0.2677,-0.2677,-0.2669,-0.2663,-0.267,-0.2671,-0.2672,-0.2693,-0.2672,-0.2709,-0.2717,-0.2723,-0.2721,-0.2713,-0.2719,-0.2653,-0.2653,-0.2653,0,0,-0.2561,-0.2581,-0.2592,-0.2632,-0.2642,-0.2676,-0.2659,-0.2683,-0.2709,-0.2674,-0.2696,-0.2689,-0.2682,-0.2706,-0.2714,-0.2697,-0.2735,-0.2728,-0.2734,-0.2728,-0.2717,-0.2723,-0.2729,-0.2655,-0.2655,-0.2655,0,0,-0.257,-0.2589,-0.261,-0.2639,-0.2671,-0.2687,-0.2699,-0.2722,-0.273,-0.2758,-0.2741,-0.275,-0.2758,-0.276,-0.2762,-0.2815,-0.2776,-0.2819,-0.2855,-0.2847,-0.2852,-0.2856,-0.2849,-0.2852,-0.2823,-0.2823,-0.2823,0,-0.2566,-0.2602,-0.2621,-0.2655,-0.2681,-0.2696,-0.2732,-0.2751,-0.2776,-0.2787,-0.2773,-0.2793,-0.2784,-0.2816,-0.2834,-0.2831,-0.2818,-0.2817,-0.2856,-0.2859,-0.2862,-0.2854,-0.2856,-0.2827,-0.2826,-0.2826,-0.2826,0,-0.2594,-0.2629,-0.2645,-0.2694,-0.2727,-0.2759,-0.2799,-0.2825,-0.2834,-0.2848,-0.2878,-0.2871,-0.2878,-0.2887,-0.2874,-0.2902,-0.2884,-0.2864,-0.2827,-0.2872,-0.2861,-0.2862,-0.2832,-0.283,-0.2829,-0.2829,0,0,-0.2559,-0.2648,-0.2651,-0.2684,-0.2751,-0.2777,-0.2834,-0.2883,-0.2908,-0.2931,-0.2956,-0.2976,-0.2961,-0.2962,-0.2952,-0.295,-0.2963,-0.2919,-0.2917,-0.2904,-0.2946,-0.2864,-0.2857,-0.2946,-0.2946,-0.2947,-0.2934,0,-0.2569,-0.2636,-0.2684,-0.2747,-0.2785,-0.2835,-0.2884,-0.2931,-0.2959,-0.2987,-0.2993,-0.3009,-0.2995,-0.2992,-0.2994,-0.2968,-0.2967,-0.2968,-0.2911,-0.291,-0.2824,-0.2856,-0.2636,-0.2599,-0.2935,-0.2935,-0.2935,0,-0.257,-0.2619,-0.2684,-0.2775,-0.2795,-0.2835,-0.2905,-0.2953,-0.3008,-0.3029,-0.3052,-0.3052,-0.3068,-0.3036,-0.3024,-0.3025,-0.2991,-0.2968,-0.2967,-0.2865,-0.2829,-0.2607,-0.2588,-0.2936,-0.2936,-0.2936,-0.2936,0,-0.2514,-0.2613,-0.2662,-0.2695,-0.2801,-0.2832,-0.288,-0.295,-0.2989,-0.3041,-0.3064,-0.3087,-0.3086,-0.3063,-0.3026,-0.3023,-0.2995,-0.2983,-0.2883,-0.2877,-0.2664,-0.2638,-0.2965,-0.2965,-0.2965,-0.2965,-0.2965,0,-0.2501,-0.2536,-0.2635,-0.2661,-0.2712,-0.2795,-0.2846,-0.29,-0.2972,-0.3,-0.3065,-0.3077,-0.3089,-0.3078,-0.3039,-0.2961,-0.3005,-0.2889,-0.2866,-0.2682,-0.2659,-0.2927,-0.2923,-0.2964,-0.2964,-0.2964,-0.2965,0,-0.2425,-0.25,-0.2552,-0.2655,-0.2686,-0.2709,-0.2814,-0.2838,-0.2933,-0.297,-0.2985,-0.3067,-0.3051,-0.3054,-0.3013,-0.2965,-0.2905,-0.2864,-0.2651,-0.2603,-0.2793,-0.2793,-0.2758,-0.2755,-0.2752,-0.275,-0.2748,0,-0.2391,-0.2409,-0.251,-0.2525,-0.2566,-0.2626,-0.2656,-0.2783,-0.2814,-0.294,-0.2934,-0.2979,-0.2961,-0.291,-0.2826,-0.2751,-0.2828,-0.2512,-0.2465,-0.2789,-0.2771,-0.2775,-0.2778,-0.2216,-0.221,-0.2205,-0.2201,0,-0.2303,-0.2334,-0.237,-0.2406,-0.2438,-0.2491,-0.2549,-0.2584,-0.2714,-0.2765,-0.2807,-0.2815,-0.2789,-0.2617,-0.2545,-0.2467,-0.251,-0.2409,-0.2784,-0.2308,-0.2278,-0.2261,-0.2281,-0.2157,-0.2161,-0.2164,-0.2167,-0.2168,-0.2202,-0.2196,-0.2233,-0.2255,-0.2296,-0.2319,-0.2302,-0.2382,-0.2426,-0.2453,-0.2571,-0.251,-0.2509,-0.2284,-0.217,-0.2079,-0.2246,-0.2137,-0.2152,-0.2172,-0.2117,-0.2085,-0.1918,-0.192,-0.1923,-0.1925,-0.1927,0,-0.206,-0.2069,-0.2075,-0.2098,-0.2072,-0.2152,-0.2188,-0.214,-0.2122,-0.2186,-0.2189,-0.1989,-0.1894,-0.1896,-0.1691,-0.166,-0.164,-0.1585,-0.1555,-0.1599,-0.1638,-0.1556,-0.1207,-0.1205,-0.1203,-0.1201,0,0,-0.1979,-0.1933,-0.1941,-0.1861,-0.1868,-0.178,-0.176,-0.1718,-0.1722,-0.1656,-0.1628,-0.1778,-0.1841,-0.153,-0.1455,-0.1296,-0.1431,-0.1228,-0.1803,-0.1809,-0.1846,-0.195,-0.1872,0,0,0,0,0]},{"header":{"parameterUnit":"m.s-1","parameterCategory":2,"la1":30.2991,"la2":30.254,"lo1":-89.0895,"lo2":-89.0444,"dy":0.0017,"dx":0.0017,"nx":28,"ny":28,"refTime":"2023-04-12T21:00:00:Z","depth":"2","parameterNumber":3,"parameterNumberName":"V-component_of_CURRENTS"},"data":[0,0,0,0,0,0,0,0,0,0,0,0,0,0,0,0,0,0,0,0,0,0,0,0,0,0,0,0,0,0,0,0,0,0,0,0,0,0,0,0,0,0,0,0,0,0,0,0,0,0,0,0,0,0,0,0,0,0,-0.0277,-0.0276,0,-0.017,-0.0168,-0.0167,-0.0099,-0.0099,-0.0099,-0.0098,0.0039,0.0042,0.0046,0,0,0,0,0,0,0,0,0,0,0,0,0,-0.0357,-0.0357,-0.0277,-0.0276,-0.0275,-0.017,-0.0168,-0.0167,-0.0099,-0.0099,-0.0099,-0.0098,0.0038,0.0042,0.0046,0,0,0,0,0,0,0,0,0,0,0,0,0,-0.0292,-0.0356,-0.0278,-0.023,-0.0224,-0.017,-0.0168,-0.0166,-0.0099,-0.0099,-0.0098,-0.0098,0.0036,0.0041,0.0046,0.007,0,0,0.0062,0.0064,0,0,0,0,0,0,0,0,-0.0296,-0.0289,-0.0238,-0.0233,-0.0227,-0.0149,-0.0146,-0.0086,-0.0099,-0.0145,-0.0098,-0.0098,-0.0022,-0.0012,0.0009,0.0077,0.0083,0.0063,0.0066,0.0068,0.0069,0,0,0,0,0,0,0,-0.0301,-0.0293,-0.0233,-0.0237,-0.023,-0.019,-0.0181,-0.0134,-0.0086,-0.0141,-0.0136,-0.0127,-0.0019,0.0003,0.0012,0.0085,0.0062,0.0067,0.007,0.0072,0.0184,0.0184,0,0,0,0,0,0,-0.0321,-0.0298,-0.0237,-0.023,-0.0263,-0.019,-0.0179,-0.0173,-0.0087,-0.0074,-0.0127,-0.0124,-0.0005,0.0006,0.0017,0.0051,0.0068,0.0073,0.0076,0.0184,0.0184,0.0184,0,0,0,0,0,0,-0.0323,-0.0317,-0.0241,-0.0262,-0.025,-0.0189,-0.0182,-0.0171,-0.0149,-0.0077,-0.0063,-0.0117,-0.0005,0.001,0.0059,0.0057,0.0075,0.008,0.0184,0.0184,0.0184,0.0118,0,0,0,0,0,0,-0.0326,-0.0318,-0.0323,-0.0264,-0.025,-0.0218,-0.0182,-0.0169,-0.0144,-0.0139,-0.0063,-0.005,-0.0003,0.0051,0.0064,0.0064,0.0084,0.0184,0.0184,0.0184,0.012,0.0115,0.0111,0,0,0,0,0,-0.0329,-0.0339,-0.0324,-0.0316,-0.0258,-0.0219,-0.0208,-0.0162,-0.0145,-0.014,-0.0085,-0.0053,0.0059,0.0056,0.0071,0.0072,0.0184,0.0184,0.0184,0.0122,0.0116,0.0111,0,0,0,0,0,0,-0.0375,-0.0332,-0.0313,-0.031,-0.0272,-0.0208,-0.0201,-0.0169,-0.0121,-0.0117,-0.0048,-0.0031,0.0008,0.0049,0.0043,0.0103,0.0125,0.0128,0.0073,0.0068,0.0064,0.0045,0.0088,0,0,0,0,0,-0.039,-0.0387,-0.0335,-0.0333,-0.0318,-0.0261,-0.0241,-0.021,-0.016,-0.0139,-0.0085,-0.003,0.002,0.0049,0.0096,0.0133,0.0177,0.0141,0.0137,0.0133,0.0128,0.02,0.0202,0.0183,0.0183,0.0183,0,0,-0.0408,-0.0384,-0.0382,-0.0343,-0.031,-0.0296,-0.0248,-0.0224,-0.0207,-0.0132,-0.0096,-0.0044,0.0025,0.0064,0.0086,0.0099,0.016,0.0133,0.0129,0.0126,0.02,0.0202,0.0204,0.0183,0.0183,0.0183,0,0,-0.0446,-0.0422,-0.0432,-0.0406,-0.0365,-0.0327,-0.0325,-0.0266,-0.0236,-0.0195,-0.0138,-0.0085,-0.0015,0.004,0.0076,0.0076,0.0131,0.0084,0.0054,0.0124,0.0126,0.0128,0.0177,0.0185,0.0086,0.0086,0.0086,0,-0.0472,-0.0474,-0.0429,-0.0429,-0.0414,-0.0348,-0.0352,-0.0309,-0.0241,-0.0214,-0.0197,-0.008,-0.0024,0.004,0.0037,0.0067,0.0106,0.0068,0.0118,0.0121,0.0125,0.0175,0.0184,0.0083,0.0083,0.0083,0.0084,0,-0.0511,-0.0513,-0.0517,-0.0495,-0.0471,-0.0465,-0.0403,-0.0374,-0.0331,-0.0281,-0.0216,-0.0132,-0.0062,-0.0038,0.0001,0.0053,0.0071,0.01,0.0129,0.0123,0.0176,0.0187,0.0078,0.0079,0.008,0.0081,0,0,-0.057,-0.0552,-0.0553,-0.0559,-0.0508,-0.0495,-0.0464,-0.0413,-0.039,-0.0316,-0.0275,-0.0186,-0.0135,-0.0092,-0.0029,0.0031,0.0088,0.0066,0.0071,0.0109,0.0226,0.0271,0.0287,0.0125,0.0127,0.0128,0.0249,0,-0.0617,-0.0649,-0.0612,-0.063,-0.0642,-0.0572,-0.0548,-0.049,-0.0427,-0.0368,-0.0266,-0.0206,-0.0156,-0.0122,-0.0054,0.0058,0.0114,0.0051,0.0231,0.0236,0.0273,0.0301,0.0259,0.0366,0.026,0.0261,0.0263,0,-0.0666,-0.0683,-0.072,-0.0707,-0.0703,-0.0696,-0.0644,-0.0613,-0.0506,-0.0455,-0.0367,-0.028,-0.0172,-0.0136,0.005,0.0006,0.01,0.0184,0.0192,0.0264,0.0301,0.0358,0.039,0.0281,0.028,0.0278,0.0277,0,-0.0742,-0.0753,-0.0791,-0.0788,-0.076,-0.0755,-0.0731,-0.0646,-0.0617,-0.0508,-0.0469,-0.0323,-0.0245,-0.0104,0.0075,0.0062,0.0278,0.029,0.0418,0.0421,0.0437,0.044,0.0409,0.0409,0.0409,0.0409,0.0408,0,-0.0808,-0.0834,-0.0835,-0.0856,-0.0891,-0.0837,-0.0839,-0.0787,-0.0707,-0.0669,-0.0527,-0.0455,-0.0234,-0.0076,0.0068,0.0286,0.0281,0.042,0.0464,0.0412,0.0411,0.0379,0.0374,0.0413,0.0412,0.0411,0.0411,0,-0.0879,-0.088,-0.0927,-0.0928,-0.0931,-0.0958,-0.0929,-0.092,-0.0834,-0.0777,-0.0745,-0.0541,-0.0324,-0.01,0.0154,0.0284,0.048,0.0551,0.0468,0.0501,0.057,0.056,0.0703,0.0706,0.0708,0.071,0.0712,0,-0.0918,-0.0952,-0.0995,-0.1031,-0.1036,-0.1061,-0.1068,-0.1,-0.0976,-0.0825,-0.0797,-0.0572,-0.039,0.0006,0.028,0.0562,0.0551,0.0671,0.0647,0.0576,0.0605,0.0591,0.0578,0.0636,0.0637,0.0638,0.0638,0,-0.0987,-0.1003,-0.1046,-0.1124,-0.116,-0.1191,-0.119,-0.119,-0.1088,-0.1007,-0.0847,-0.0687,-0.0289,0.0049,0.042,0.0566,0.0627,0.0696,0.0669,0.0567,0.0523,0.0548,0.0535,0.0645,0.0644,0.0644,0.0643,0.0643,-0.1032,-0.1089,-0.1143,-0.1213,-0.1262,-0.1298,-0.1309,-0.1273,-0.122,-0.1061,-0.0894,-0.0618,-0.0286,0.0256,0.0509,0.0731,0.0726,0.0772,0.0765,0.0759,0.0729,0.0692,0.0838,0.0838,0.0839,0.0839,0.0839,0,-0.108,-0.1142,-0.1218,-0.1301,-0.1361,-0.1359,-0.1365,-0.1332,-0.1259,-0.1065,-0.0865,-0.0488,-0.0095,0.0231,0.0603,0.0828,0.0786,0.0841,0.0749,0.0741,0.0735,0.07,0.0804,0.0804,0.0805,0.0805,0,0,-0.1109,-0.1192,-0.1235,-0.1355,-0.1409,-0.1443,-0.1441,-0.1363,-0.1218,-0.1017,-0.0798,-0.0479,-0.0072,0.0185,0.0466,0.0652,0.0628,0.0651,0.0657,0.0508,0.0499,0.0675,0.0612,0,0,0,0,0]}],[{"header":{"parameterUnit":"m.s-1","parameterCategory":2,"la1":30.2991,"la2":30.254,"lo1":-89.0895,"lo2":-89.0444,"dy":0.0017,"dx":0.0017,"nx":28,"ny":28,"refTime":"2023-04-12T21:00:00:Z","depth":"4","parameterNumber":2,"parameterNumberName":"U-component_of_CURRENTS"},"data":[0,0,0,0,0,0,0,0,0,0,0,0,0,0,0,0,0,0,0,0,0,0,0,0,0,0,0,0,0,0,0,0,0,0,0,0,0,0,0,0,0,0,0,0,0,0,0,0,0,0,0,0,0,0,0,0,0,0,-0.188,-0.1881,0,-0.1947,-0.1948,-0.1948,-0.1986,-0.1986,-0.1987,-0.1987,-0.2041,-0.2042,-0.2043,0,0,0,0,0,0,0,0,0,0,0,0,0,-0.1775,-0.1777,-0.188,-0.1881,-0.1883,-0.1947,-0.1948,-0.1948,-0.1986,-0.1986,-0.1987,-0.1987,-0.204,-0.2042,-0.2043,0,0,0,0,0,0,0,0,0,0,0,0,0,-0.1827,-0.1777,-0.188,-0.1911,-0.1915,-0.1947,-0.1948,-0.1949,-0.1986,-0.1986,-0.1987,-0.1987,-0.204,-0.2041,-0.2043,-0.2042,0,0,-0.2048,-0.2049,0,0,0,0,0,0,0,0,-0.1824,-0.183,-0.1905,-0.1909,-0.1913,-0.1961,-0.193,-0.198,-0.1986,-0.1956,-0.1987,-0.1988,-0.2014,-0.2018,-0.2026,-0.2044,-0.2047,-0.2048,-0.2049,-0.205,-0.205,0,0,0,0,0,0,0,-0.182,-0.1827,-0.1904,-0.1907,-0.1911,-0.1918,-0.1926,-0.194,-0.1979,-0.1959,-0.1962,-0.1974,-0.2016,-0.2024,-0.2027,-0.2047,-0.2048,-0.205,-0.2051,-0.2051,-0.2156,-0.2157,0,0,0,0,0,0,-0.1818,-0.1824,-0.1902,-0.1906,-0.1872,-0.192,-0.1928,-0.1943,-0.1979,-0.1986,-0.1973,-0.1975,-0.2021,-0.2025,-0.2029,-0.2111,-0.205,-0.2051,-0.2052,-0.2154,-0.2156,-0.2158,0,0,0,0,0,0,-0.1815,-0.1824,-0.1899,-0.1869,-0.1879,-0.1921,-0.1937,-0.1944,-0.1986,-0.1991,-0.1997,-0.2012,-0.2022,-0.2027,-0.2076,-0.211,-0.2052,-0.2054,-0.2152,-0.2155,-0.2157,-0.2222,0,0,0,0,0,0,-0.1812,-0.1823,-0.1847,-0.1869,-0.1881,-0.1944,-0.1937,-0.1945,-0.1991,-0.1996,-0.2026,-0.2029,-0.2022,-0.2074,-0.2078,-0.2111,-0.2055,-0.2149,-0.2153,-0.2156,-0.2217,-0.2226,-0.2234,0,0,0,0,0,-0.1808,-0.1835,-0.1848,-0.1858,-0.1909,-0.1946,-0.1954,-0.1982,-0.1993,-0.202,-0.2043,-0.203,-0.2098,-0.2077,-0.2081,-0.2115,-0.2148,-0.2152,-0.2156,-0.2213,-0.2224,-0.2234,0,0,0,0,0,0,-0.1804,-0.1843,-0.1857,-0.1896,-0.1932,-0.1954,-0.1985,-0.2003,-0.2042,-0.2055,-0.2054,-0.206,-0.2114,-0.2109,-0.2086,-0.2156,-0.212,-0.2125,-0.2163,-0.2173,-0.2181,-0.2169,-0.2056,0,0,0,0,0,-0.1813,-0.1845,-0.1881,-0.1915,-0.1935,-0.1967,-0.1992,-0.2014,-0.2044,-0.2063,-0.2085,-0.2107,-0.2128,-0.2148,-0.2164,-0.2205,-0.2184,-0.223,-0.2239,-0.2246,-0.224,-0.2236,-0.2242,-0.2171,-0.2171,-0.2171,0,0,-0.1821,-0.1848,-0.1867,-0.1917,-0.1945,-0.1984,-0.1984,-0.2033,-0.2073,-0.2062,-0.2128,-0.214,-0.2146,-0.2191,-0.2215,-0.2197,-0.2259,-0.2251,-0.2257,-0.2246,-0.2241,-0.2247,-0.2253,-0.2174,-0.2174,-0.2173,0,0,-0.1842,-0.1878,-0.191,-0.1945,-0.1999,-0.2019,-0.2042,-0.2089,-0.212,-0.2179,-0.2179,-0.2211,-0.2255,-0.2259,-0.2266,-0.2331,-0.2302,-0.2347,-0.2381,-0.2379,-0.2384,-0.2388,-0.2382,-0.2385,-0.2352,-0.2352,-0.2352,0,-0.1852,-0.1895,-0.1926,-0.1966,-0.2001,-0.2039,-0.2083,-0.212,-0.2179,-0.2205,-0.2213,-0.2273,-0.2281,-0.2318,-0.2342,-0.2348,-0.2341,-0.2341,-0.2387,-0.2391,-0.2394,-0.2387,-0.239,-0.2356,-0.2356,-0.2355,-0.2355,0,-0.1885,-0.1936,-0.196,-0.2021,-0.2064,-0.211,-0.2161,-0.2212,-0.2253,-0.228,-0.2342,-0.2354,-0.2382,-0.2398,-0.239,-0.2425,-0.2412,-0.2395,-0.2357,-0.2405,-0.2395,-0.2397,-0.2361,-0.236,-0.2359,-0.2358,0,0,-0.1858,-0.1964,-0.1974,-0.2016,-0.21,-0.2132,-0.2206,-0.227,-0.2313,-0.2371,-0.2416,-0.2456,-0.246,-0.2466,-0.2466,-0.2469,-0.249,-0.2448,-0.2446,-0.2433,-0.2487,-0.2327,-0.2312,-0.2484,-0.2484,-0.2485,-0.2476,0,-0.1875,-0.1955,-0.2008,-0.209,-0.2133,-0.2199,-0.2259,-0.2324,-0.2376,-0.243,-0.2453,-0.2495,-0.2488,-0.2505,-0.2509,-0.2494,-0.2495,-0.2494,-0.245,-0.2448,-0.2291,-0.2308,-0.2486,-0.2476,-0.2477,-0.2477,-0.2477,0,-0.1878,-0.1935,-0.2019,-0.2123,-0.2149,-0.2205,-0.2298,-0.2359,-0.2437,-0.2477,-0.2521,-0.254,-0.2567,-0.2546,-0.2545,-0.2548,-0.2522,-0.2505,-0.2504,-0.2325,-0.2288,-0.2416,-0.2479,-0.2479,-0.2479,-0.2479,-0.2478,0,-0.1819,-0.1937,-0.2005,-0.2043,-0.2165,-0.2217,-0.2279,-0.237,-0.242,-0.2502,-0.2539,-0.2576,-0.2596,-0.258,-0.2552,-0.2555,-0.2529,-0.2526,-0.2359,-0.2349,-0.2469,-0.2464,-0.2511,-0.2511,-0.2511,-0.2511,-0.2511,0,-0.1795,-0.1852,-0.1988,-0.2022,-0.2099,-0.2193,-0.2272,-0.234,-0.243,-0.2464,-0.2552,-0.2564,-0.2605,-0.2598,-0.2564,-0.2453,-0.2538,-0.2354,-0.2327,-0.25,-0.2499,-0.247,-0.2465,-0.2511,-0.2511,-0.2511,-0.2511,0,-0.1713,-0.1811,-0.1889,-0.2026,-0.2074,-0.2121,-0.2257,-0.2293,-0.2407,-0.2452,-0.2479,-0.2564,-0.2544,-0.256,-0.2528,-0.2446,-0.2371,-0.2311,-0.2497,-0.2483,-0.2196,-0.2195,-0.2125,-0.2119,-0.2114,-0.211,-0.2106,0,-0.1675,-0.171,-0.1864,-0.1902,-0.1969,-0.2064,-0.2112,-0.2253,-0.2283,-0.2415,-0.2402,-0.2455,-0.248,-0.2314,-0.235,-0.2273,-0.2243,-0.2204,-0.2193,-0.217,-0.2153,-0.216,-0.2166,-0.2098,-0.2097,-0.2095,-0.2094,0,-0.1586,-0.1654,-0.1713,-0.1793,-0.1859,-0.1929,-0.201,-0.2027,-0.216,-0.2291,-0.2258,-0.2242,-0.222,-0.2188,-0.2146,-0.2091,-0.2228,-0.2151,-0.2161,-0.2151,-0.2137,-0.2127,-0.2139,-0.2077,-0.2079,-0.2081,-0.2082,0,-0.1503,-0.1516,-0.1596,-0.1649,-0.1729,-0.1749,-0.1828,-0.1854,-0.1914,-0.2066,-0.2039,-0.2097,-0.2182,-0.2091,-0.2045,-0.1984,-0.1956,-0.1893,-0.1916,-0.1936,-0.1875,-0.1831,-0.1639,0,0,0,0,0,-0.1409,-0.1404,-0.144,-0.1489,-0.1561,-0.1605,-0.1728,-0.1807,-0.1949,-0.1864,-0.1951,-0.1915,-0.1865,-0.19,-0.1794,-0.1956,-0.1963,-0.1825,-0.1905,-0.198,-0.2,-0.1944,0,0,0,0,0,0,-0.1341,-0.1372,-0.1383,-0.1341,-0.1336,-0.1397,-0.1465,-0.1569,-0.1544,-0.1693,-0.1672,-0.1783,-0.1759,-0.1876,-0.1743,-0.1752,-0.176,-0.1872,-0.1866,-0.1968,-0.1987,-0.2003,-0.1953,0,0,0,0,0]},{"header":{"parameterUnit":"m.s-1","parameterCategory":2,"la1":30.2991,"la2":30.254,"lo1":-89.0895,"lo2":-89.0444,"dy":0.0017,"dx":0.0017,"nx":28,"ny":28,"refTime":"2023-04-12T21:00:00:Z","depth":"4","parameterNumber":3,"parameterNumberName":"V-component_of_CURRENTS"},"data":[0,0,0,0,0,0,0,0,0,0,0,0,0,0,0,0,0,0,0,0,0,0,0,0,0,0,0,0,0,0,0,0,0,0,0,0,0,0,0,0,0,0,0,0,0,0,0,0,0,0,0,0,0,0,0,0,0,0,-0.0184,-0.0183,0,-0.0107,-0.0106,-0.0105,-0.0058,-0.0058,-0.0058,-0.0058,0.0051,0.0054,0.0057,0,0,0,0,0,0,0,0,0,0,0,0,0,-0.0228,-0.0228,-0.0184,-0.0183,-0.0182,-0.0107,-0.0106,-0.0105,-0.0058,-0.0058,-0.0058,-0.0058,0.005,0.0053,0.0057,0,0,0,0,0,0,0,0,0,0,0,0,0,-0.0185,-0.0228,-0.0184,-0.0151,-0.0147,-0.0108,-0.0106,-0.0105,-0.0058,-0.0058,-0.0058,-0.0058,0.0049,0.0053,0.0057,0.008,0,0,0.007,0.0072,0,0,0,0,0,0,0,0,-0.0187,-0.0183,-0.0157,-0.0153,-0.0149,-0.0093,-0.0082,-0.0042,-0.0058,-0.009,-0.0058,-0.0058,0.0005,0.0012,0.0028,0.0086,0.009,0.0071,0.0073,0.0075,0.0076,0,0,0,0,0,0,0,-0.019,-0.0185,-0.0152,-0.0156,-0.0151,-0.0119,-0.0113,-0.0074,-0.0043,-0.0088,-0.0084,-0.0078,0.0007,0.0024,0.0031,0.0092,0.007,0.0074,0.0077,0.0078,0.0174,0.0174,0,0,0,0,0,0,-0.0206,-0.0189,-0.0154,-0.015,-0.017,-0.0119,-0.0112,-0.011,-0.0044,-0.0034,-0.0079,-0.0077,0.0017,0.0026,0.0035,0.0069,0.0075,0.0079,0.0081,0.0174,0.0174,0.0174,0,0,0,0,0,0,-0.0208,-0.0204,-0.0157,-0.0168,-0.016,-0.0119,-0.0117,-0.0109,-0.0094,-0.0038,-0.0027,-0.0073,0.0017,0.0029,0.0071,0.0073,0.0081,0.0085,0.0174,0.0174,0.0174,0.0134,0,0,0,0,0,0,-0.0209,-0.0205,-0.0212,-0.017,-0.016,-0.014,-0.0117,-0.0107,-0.0091,-0.0088,-0.0029,-0.0018,0.0018,0.0064,0.0075,0.0079,0.0088,0.0174,0.0174,0.0174,0.0135,0.0132,0.013,0,0,0,0,0,-0.0211,-0.0221,-0.0213,-0.0209,-0.017,-0.0141,-0.0133,-0.0101,-0.0091,-0.0087,-0.0045,-0.002,0.0071,0.0068,0.008,0.0086,0.0174,0.0174,0.0174,0.0136,0.0133,0.013,0,0,0,0,0,0,-0.0242,-0.0216,-0.0206,-0.0207,-0.018,-0.0134,-0.0129,-0.0107,-0.007,-0.0068,-0.0015,-0.0001,0.0033,0.0064,0.0058,0.0112,0.0125,0.0127,0.0092,0.0089,0.0087,0.0068,0.0091,0,0,0,0,0,-0.0254,-0.0256,-0.0221,-0.0223,-0.0213,-0.0173,-0.0159,-0.0137,-0.0099,-0.0083,-0.0041,0.0002,0.0044,0.0069,0.0106,0.014,0.0173,0.015,0.0147,0.0145,0.0138,0.0203,0.0206,0.0174,0.0174,0.0174,0,0,-0.0269,-0.0254,-0.0256,-0.0231,-0.0208,-0.0195,-0.0164,-0.0147,-0.0132,-0.0076,-0.0047,-0.0006,0.0049,0.0086,0.0104,0.0113,0.0169,0.0145,0.0143,0.0137,0.0203,0.0206,0.0209,0.0174,0.0174,0.0174,0,0,-0.0294,-0.0285,-0.0292,-0.0273,-0.0246,-0.0218,-0.0217,-0.0174,-0.0152,-0.0118,-0.0075,-0.0031,0.0026,0.0073,0.0103,0.011,0.015,0.0115,0.0096,0.0159,0.0162,0.0165,0.0199,0.0206,0.0119,0.0119,0.0119,0,-0.0313,-0.0317,-0.0289,-0.0287,-0.0278,-0.0233,-0.0234,-0.0201,-0.015,-0.013,-0.0118,-0.0024,0.0023,0.0081,0.0081,0.0105,0.0135,0.0103,0.0156,0.016,0.0164,0.0198,0.0206,0.0117,0.0117,0.0117,0.0117,0,-0.0335,-0.0341,-0.0344,-0.0329,-0.0312,-0.0309,-0.0263,-0.0242,-0.0213,-0.0174,-0.0121,-0.0053,0.0003,0.0026,0.0056,0.0107,0.0115,0.0142,0.0162,0.0164,0.02,0.0209,0.0114,0.0115,0.0115,0.0116,0,0,-0.0374,-0.0365,-0.0367,-0.0375,-0.0338,-0.0331,-0.0304,-0.0266,-0.0252,-0.0191,-0.0161,-0.0082,-0.0046,-0.001,0.0041,0.0096,0.0149,0.0122,0.0126,0.0152,0.0265,0.0245,0.0253,0.0186,0.0187,0.0188,0.0275,0,-0.0402,-0.0426,-0.0402,-0.0418,-0.0428,-0.0381,-0.0363,-0.032,-0.0275,-0.0232,-0.0147,-0.0102,-0.0057,-0.0034,0.0031,0.0122,0.0171,0.0121,0.0262,0.0265,0.0245,0.0263,0.0193,0.0281,0.0284,0.0285,0.0286,0,-0.043,-0.0447,-0.0476,-0.0477,-0.0475,-0.0474,-0.0445,-0.0421,-0.034,-0.0304,-0.0232,-0.0164,-0.0071,-0.004,0.0119,0.0083,0.0162,0.0231,0.0237,0.0237,0.0262,0.0283,0.0303,0.0302,0.03,0.0299,0.0298,0,-0.0482,-0.0496,-0.053,-0.053,-0.0518,-0.0522,-0.0511,-0.0451,-0.0435,-0.0351,-0.0326,-0.02,-0.0141,-0.0015,0.013,0.0126,0.0299,0.0319,0.0373,0.0372,0.0382,0.0378,0.0423,0.0423,0.0423,0.0422,0.0422,0,-0.0519,-0.0546,-0.0566,-0.0584,-0.0625,-0.059,-0.0606,-0.057,-0.0517,-0.0494,-0.0376,-0.0325,-0.0132,-0.0005,0.0121,0.0273,0.03,0.0368,0.0399,0.0361,0.0353,0.0388,0.0383,0.0426,0.0425,0.0424,0.0424,0,-0.0561,-0.0572,-0.062,-0.064,-0.0653,-0.0685,-0.0689,-0.069,-0.0631,-0.0596,-0.0573,-0.0411,-0.0242,-0.0055,0.016,0.0251,0.0404,0.0448,0.0376,0.0402,0.0433,0.0424,0.0514,0.0514,0.0514,0.0514,0.0514,0,-0.0581,-0.0612,-0.0677,-0.0719,-0.0735,-0.0775,-0.0796,-0.0758,-0.0747,-0.0645,-0.0625,-0.046,-0.0336,-0.0046,0.0144,0.0386,0.0416,0.0481,0.047,0.0423,0.0445,0.0437,0.0428,0.0514,0.0514,0.0514,0.0514,0,-0.0619,-0.065,-0.0694,-0.0784,-0.0834,-0.0879,-0.09,-0.09,-0.0835,-0.0791,-0.0651,-0.0482,-0.0291,-0.0053,0.0136,0.0308,0.0436,0.0483,0.0484,0.0473,0.0425,0.0445,0.0437,0.0515,0.0515,0.0515,0.0515,0,-0.0649,-0.07,-0.0763,-0.0836,-0.091,-0.0951,-0.0958,-0.092,-0.0895,-0.0767,-0.0725,-0.0498,-0.0356,-0.0094,0.0081,0.0251,0.0288,0.0329,0.0339,0.034,0.0265,0.0177,0.0218,0,0,0,0,0,-0.067,-0.0725,-0.0803,-0.0884,-0.0956,-0.0987,-0.1005,-0.0991,-0.0933,-0.0844,-0.0776,-0.059,-0.0299,-0.0163,0.0003,0.0062,0.0297,0.0258,0.0344,0.0516,0.0516,0.0456,0,0,0,0,0,0,-0.0688,-0.0765,-0.0805,-0.0899,-0.0956,-0.102,-0.1033,-0.0996,-0.0926,-0.0844,-0.0682,-0.0574,-0.0288,-0.0395,-0.0001,0.0052,0.0122,0.0405,0.0407,0.0517,0.0516,0.0516,0.0454,0,0,0,0,0]}]]